Location: Limoges
(45.8354°N, 1.2645°E)
Time: 17:10:14
(UTC+01:00)

ISS - Pass Details

Date: 13 November 2025
Orbit: 416 x 420 km, 51.6° (Epoch: 12 December)

Event Time Altitude Azimuth Distance (km) Brightness Sun altitude
Rises 19:38:53 0° 233° (SW) 2,359 0.9 -23.2°
Reaches altitude 10° 19:40:59 10° 231° (SW) 1,497 -0.3 -23.6°
Enters shadow 19:42:55 31° 222° (SW) 753 -2.2 -23.9°
